カタログに戻る

BELINTERSAT 1

運用中通信GEO
NORAD 41238·PAYLOAD·🇧🇾 Belarus

打ち上げ Jan 15, 2016 から Xichang Satellite Launch Center

Loading…

TLE

最新Source: Space-Track

元期: Sep 14, 2026, 14:02 UTC

1 41238U 16001A   26257.58532772  .00000099  00000-0  00000-0 0  9995
2 41238   0.0249  83.4511 0000681  19.2798 153.0749  1.00273352 39136

AllMySatでBELINTERSAT 1をリアルタイム追跡

Download on the App Store